マクノート彗星

254P/McNaught (1980)

English version
Home page
Updated on November 3, 2020

---------------------------------------------------------------------

・ プロフィール

・ 軌道要素

Epoch 1980 Oct. 8.0 TT = JDT 2444520.5                                          
T 1980 Sept. 25.60114 TT                                Rudenko                 
q   3.2003415            (2000.0)            P               Q                  
n   0.09786232     Peri.  219.88909     +0.90841623     +0.07821133             
a   4.6636475      Node   130.30520     -0.07878181     +0.99677037             
e   0.3137686      Incl.   32.58343     -0.41057689     -0.01821567             
P  10.1                                                                         
From 166 observations 1980 Oct. 5-2020 Sept. 23, mean residual 0".7.            

・ 光度変化

        m1 = 10.5 + 5 logΔ + 10.0 log r(t - 200)

---------------------------------------------------------------------

軌道要素はM.P.E.C. 2020-S188に掲載されたものです。
光度グラフはComet for Windowsで作成したものです。

---------------------------------------------------------------------

Copyright(C) Seiichi Yoshida (comet@aerith.net). All rights reserved.